Tracking 19245 objects as of 17-Aug-2018
HD Live streaming from Space Station
objects crossing your sky now

FENGYUN 1C DEB

Track FENGYUN 1C DEB now!
10-day predictions


NORAD ID: 30371
Int'l Code: 1999-025ACJ
Perigee: 826.3 km
Apogee: 839.1 km
Inclination: 98.8 °
Period: 101.4 minutes
Semi major axis: 7203 km
RCS: 0.046 m2 (small)
Launch date: May 10, 1999
Source: People's Republic of China (PRC)
Launch site: Taiyaun Space Center, China (TSC)

Note: This is SATELLITE DEBRIS
aabbcc
Your satellite tracking list
Your tracking list is empty




NASA's NSSDC Master Catalog

Two Line Element Set (TLE):
1 30371U 99025ACJ 18229.38637479  .00000361  00000-0  19077-3 0  9995
2 30371  98.8201 268.6092 0008860 151.1677 330.5630 14.19936015598873
Source of the keplerian elements: AFSPC